Location: Bowden
(51.9167°N, 114.0333°W)
Time: 11:10:45
(UTC+00:00)

Envisat - Pass Details

Date: 08 December 2021
Orbit: 764 x 766 km, 98.2° (Epoch: 28 January)

Event Time Altitude Azimuth Distance (km) Brightness Sun altitude
Rises 13:01:28 0° 13° (NNE) 3,248 6.3 -21.8°
Reaches altitude 10° 13:03:47 10° 12° (NNE) 2,317 5.5 -21.4°
Maximum altitude 13:08:54 77° 287° (WNW) 792 2.8 -20.6°
Drops below altitude 10° 13:13:57 10° 203° (SSW) 2,299 5.4 -19.9°
Sets 13:16:15 0° 202° (SSW) 3,221 6.1 -19.5°
